7 * 24
多渠道服务支持
STARLINK-11380是美国太空探索技术公司(SpaceX)星链(Starlink)星座中的一颗卫星,于2024年11月25日由美国发射升空。星链计划旨在构建全球卫星互联网星座,为全球偏远地区、海洋等区域提供高速互联网接入服务,该卫星的发射进一步扩充了星链星座的规模,推动星座组网进程。
美国
(US)
| 数据来源 | 国际轨道数据 |
| 星历时间: | 2026-09-10T22:59:23+0800 19小时前 查看轨道信息 |
| 半长轴: | 6734.025km |
| 偏心率: | 0.0002902 |
| 轨道倾角: | 43.000° |
| 近地点辐角 | 251.250° |
| 升交点赤经 | 7.897° |
| 平近点角 | 108.806° |
| 近地点: | 353.933km |
| 远地点: | 357.843km |
| 周期: | 91.658分钟 |
| 每日圈数: | 15.710527 |